Location: Kellogg
(38.0159°N, 90.0546°W)
Time: 22:59:07
(UTC+00:00)

Vanguard 2 - Pass Details

Date: 22 September 2024
Orbit: 552 x 2910 km, 32.9° (Epoch: 09 October)

Event Time Altitude Azimuth Distance (km) Brightness Sun altitude
Rises 12:24:33 0° 267° (W) 3,335 10.1 6.3°
Reaches altitude 10° 12:27:04 10° 253° (WSW) 2,637 9.7 6.7°
Maximum altitude 12:32:16 26° 199° (SSW) 2,195 9.8 7.8°
Drops below altitude 10° 12:39:47 10° 148° (SSE) 3,933 11.8 9.2°
Sets 12:44:33 0° 138° (SE) 5,376 12.7 10.2°
